Tracking 19817 objects as of 19-Aug-2019
HD Live streaming from Space Station
objects crossing your sky now

COSMOS 2251 DEB

Track COSMOS 2251 DEB now!
10-day predictions


NORAD ID: 40799
Int'l Code: 1993-036BWC
Perigee: 529.2 km
Apogee: 747.9 km
Inclination: 73.9 °
Period: 97.3 minutes
Semi major axis: 7009 km
RCS: Unknown
Launch date: June 16, 1993
Source: Commonwealth of Independent States (former USSR) (CIS)
Launch site: PLESETSK MISSILE AND SPACE COMPLEX (PKMTR)

Note: This is SATELLITE DEBRIS
aabbcc
Your satellite tracking list
Your tracking list is empty




NASA's NSSDC Master Catalog

Two Line Element Set (TLE):
1 40799U 93036BWC 19223.14527122  .00000164  00000-0  22515-4 0  9991
2 40799  73.9345  39.6360 0155984 102.3922 259.4761 14.79348595456284
Source of the keplerian elements: AFSPC